Location: Grasslands National Park East Block
(49.0708°N, 106.5295°W)
Time: 21:06:54
(UTC-06:00)

STARS - Visible Passes

Search period start: 19 September 2019 00:00
Search period end: 29 September 2019 00:00
Orbit: 625 x 639 km, 98.3° (Epoch: 19 September)

Date Brightness Start Highest point End Pass type
(mag) Time Alt. Az. Time Alt. Az. Time Alt. Az.
19 Sep ? 19:49:47 10° E 19:50:08 10° E 19:50:29 10° E visible
19 Sep ? 21:22:43 10° NNE 21:27:10 83° ESE 21:28:42 40° S visible
19 Sep ? 23:00:30 10° NNW 23:02:52 14° WNW 23:05:13 10° W visible
20 Sep ? 20:08:41 10° NE 20:11:29 16° E 20:12:13 16° ESE visible
20 Sep ? 21:43:50 10° N 21:48:12 62° WNW 21:49:38 39° SW visible
21 Sep ? 20:29:04 10° NE 20:32:45 25° E 20:33:09 25° ESE visible
21 Sep ? 22:05:04 10° N 22:09:11 39° WNW 22:10:33 31° WSW visible
22 Sep ? 20:49:48 10° NNE 20:53:57 39° E 20:54:05 39° ESE visible
22 Sep ? 22:26:26 10° N 22:30:06 26° WNW 22:31:29 22° W visible
23 Sep ? 21:10:42 10° NNE 21:15:01 63° E 21:15:01 63° E visible
23 Sep ? 22:48:00 10° NNW 22:50:58 18° WNW 22:52:25 16° W visible
24 Sep ? 19:57:27 10° ENE 19:58:34 12° ENE 19:58:34 12° ENE visible
24 Sep ? 21:31:44 10° NNE 21:35:58 79° NNW 21:35:58 79° NNW visible
24 Sep ? 23:09:59 10° NNW 23:11:46 12° NW 23:13:21 10° WNW visible
25 Sep ? 20:17:23 10° NE 20:19:31 18° ENE 20:19:31 18° ENE visible
25 Sep ? 21:52:54 10° N 21:56:54 51° NW 21:56:54 51° NW visible
26 Sep ? 20:37:55 10° NE 20:40:28 25° ENE 20:40:28 25° ENE visible
26 Sep ? 22:14:11 10° N 22:17:52 33° WNW 22:17:52 33° WNW visible
27 Sep ? 20:58:43 10° NNE 21:01:26 32° NE 21:01:26 32° NE visible
27 Sep ? 22:35:36 10° N 22:38:50 23° WNW 22:38:50 23° WNW visible
28 Sep ? 06:26:29 10° ENE 06:27:28 11° NE 06:28:27 10° NE visible
28 Sep ? 21:19:41 10° NNE 21:22:24 37° NNE 21:22:24 37° NNE visible
28 Sep ? 22:57:16 10° NNW 22:59:47 16° WNW 22:59:47 16° WNW visible
